Two Harbors, MN

7:49 AM CDT on July 25, 2017 (GMT -0500)
Helgeson

Weather History for KTWM - October, 2012

Change the Weather History Date:

Thursday, October 25, 2012

  Actual Average Record
Temperature  
Mean Temperature 40 °F -  
Max Temperature 46 °F 49 °F 73 °F (1989)
Min Temperature 33 °F 36 °F 16 °F (1962)
Degree Days  
Heating Degree Days 26    
Moisture  
Dew Point 32 °F    
Average Humidity 81    
Maximum Humidity 87    
Minimum Humidity 75    
Precipitation  
Precipitation 0.32 in - - ()
Sea Level Pressure  
Sea Level Pressure 29.73 in    
Wind  
Wind Speed 10 mph (NW)    
Max Wind Speed 16 mph    
Max Gust Speed 26 mph    
Visibility 8 miles    
Events Rain , Snow    
Averages and records for this station are not official NWS values.
T = Trace of Precipitation, MM = Missing Value Source: NWS Daily Summary

Daily Weather History Graph

Daily Weather History Graph

Search for Another Location

Airport or City:

Trip Planner

Search our weather history database for the weather conditions in past years. The results will help you decide how hot, cold, wet, or windy it might be!

Date:

Astronomy

Oct. 25, 2012 Rise Set
Actual Time 7:40 AM CDT 6:01 PM CDT
Civil Twilight 7:08 AM CDT 6:32 PM CDT
Nautical Twilight 6:33 AM CDT 7:07 PM CDT
Astronomical Twilight 5:57 AM CDT 7:43 PM CDT
Moon 3:59 PM CDT 3:23 AM CDT
Length of Visible Light 11h 23m
Length of Day
10h 20m
Waxing Gibbous, 84% of the Moon is Illuminated
Oct 25
Waxing Gibbous
Oct 29
Full
Nov 6
Last Quarter
Nov 13
New
Nov 20
First Quarter

Hourly Weather History & Observations

Time (CDT) Temp. Windchill Dew Point Humidity Pressure Visibility Wind Dir Wind Speed Gust Speed Precip Events Conditions
12:11 AM 46.4 °F 40.7 °F 41.0 °F 81% 29.77 in 10.0 mi NW 12.7 mph 21.9 mph N/A   Drizzle
12:31 AM 44.6 °F 38.8 °F 39.2 °F 81% 29.75 in 10.0 mi NNW 11.5 mph 21.9 mph 0.01 in Rain Light Rain
12:51 AM 44.6 °F 39.7 °F 39.2 °F 81% 29.77 in 7.0 mi NW 9.2 mph - 0.01 in   Overcast
1:11 AM 44.6 °F 38.8 °F 39.2 °F 81% 29.74 in 10.0 mi NNW 11.5 mph 18.4 mph N/A   Drizzle
1:31 AM 42.8 °F 37.0 °F 39.2 °F 87% 29.73 in 7.0 mi NNW 10.4 mph 18.4 mph 0.01 in   Overcast
1:51 AM 42.8 °F 39.3 °F 39.2 °F 87% 29.74 in 10.0 mi NNW 5.8 mph - 0.01 in   Overcast
2:11 AM 42.8 °F 37.0 °F 37.4 °F 81% 29.72 in 10.0 mi NNW 10.4 mph 18.4 mph N/A   Overcast
2:31 AM 42.8 °F 38.0 °F 37.4 °F 81% 29.73 in 7.0 mi NNW 8.1 mph 17.3 mph N/A   Overcast
2:51 AM 42.8 °F 38.0 °F 37.4 °F 81% 29.72 in 10.0 mi NNW 8.1 mph - N/A   Overcast
3:11 AM 42.8 °F 38.0 °F 37.4 °F 81% 29.70 in 7.0 mi North 8.1 mph - N/A   Light Drizzle
3:31 AM 42.8 °F 38.6 °F 37.4 °F 81% 29.70 in 10.0 mi NNW 6.9 mph - N/A   Overcast
3:52 AM 42.8 °F 38.0 °F 37.4 °F 81% 29.71 in 10.0 mi NNW 8.1 mph - N/A   Overcast
4:11 AM 42.8 °F 40.1 °F 37.4 °F 81% 29.70 in 7.0 mi NNW 4.6 mph - N/A   Light Drizzle
4:31 AM 42.8 °F 38.0 °F 37.4 °F 81% 29.69 in 7.0 mi NNW 8.1 mph - N/A Rain Light Rain
4:52 AM 42.8 °F 39.3 °F 37.4 °F 81% 29.70 in 5.0 mi NW 5.8 mph - N/A   Drizzle
5:11 AM 42.8 °F 37.5 °F 37.4 °F 81% 29.69 in 5.0 mi NNW 9.2 mph - 0.01 in Rain Light Rain
5:31 AM 42.8 °F 36.6 °F 37.4 °F 81% 29.70 in 4.0 mi NNW 11.5 mph - 0.03 in   Drizzle
5:52 AM 42.8 °F 38.0 °F 37.4 °F 81% 29.67 in 4.0 mi NNW 8.1 mph 16.1 mph 0.03 in   Drizzle
6:11 AM 42.8 °F 38.6 °F 37.4 °F 81% 29.66 in 4.0 mi NNW 6.9 mph - N/A   Light Drizzle
6:31 AM 42.8 °F 37.5 °F 37.4 °F 81% 29.66 in 5.0 mi NNW 9.2 mph - N/A Rain Light Rain
7:31 AM 41.0 °F 34.3 °F 35.6 °F 81% 29.66 in 7.0 mi NW 11.5 mph 19.6 mph 0.08 in Rain Rain
7:51 AM 41.0 °F 34.7 °F 35.6 °F 81% 29.66 in 10.0 mi NW 10.4 mph 23.0 mph 0.14 in Rain Rain
8:11 AM 39.2 °F 32.5 °F 33.8 °F 81% 29.64 in 10.0 mi NW 10.4 mph 21.9 mph 0.03 in Rain Rain
8:31 AM 37.4 °F 28.9 °F 33.8 °F 87% 29.65 in 10.0 mi NW 13.8 mph 24.2 mph 0.06 in Rain Light Rain
8:52 AM 37.4 °F 29.8 °F 32.0 °F 81% 29.64 in 7.0 mi NW 11.5 mph 25.3 mph 0.08 in Rain Light Rain
9:11 AM 37.4 °F 29.3 °F 32.0 °F 81% 29.65 in 10.0 mi NNW 12.7 mph 24.2 mph 0.01 in Rain Light Rain
9:31 AM 35.6 °F 25.9 °F 30.2 °F 81% 29.65 in 5.0 mi NW 16.1 mph 21.9 mph 0.01 in   Drizzle
9:52 AM 35.6 °F 28.6 °F 30.2 °F 81% 29.63 in 5.0 mi NNW 9.2 mph 25.3 mph 0.02 in Rain Light Rain
10:31 AM 35.6 °F 27.5 °F 30.2 °F 81% 29.64 in 5.0 mi NW 11.5 mph 21.9 mph N/A Rain Light Rain
10:51 AM 35.6 °F 26.2 °F 30.2 °F 81% 29.63 in 5.0 mi NW 15.0 mph 20.7 mph N/A   Drizzle
11:11 AM 35.6 °F 27.1 °F 30.2 °F 81% 29.64 in 5.0 mi NW 12.7 mph 25.3 mph N/A   Light Drizzle
11:32 AM 35.6 °F 26.6 °F 30.2 °F 81% 29.64 in 7.0 mi NW 13.8 mph 25.3 mph N/A   Light Drizzle
11:51 AM 35.6 °F 27.5 °F 30.2 °F 81% 29.66 in 5.0 mi NW 11.5 mph 26.5 mph N/A   Drizzle
12:11 PM 35.6 °F 27.5 °F 30.2 °F 81% 29.67 in 7.0 mi WNW 11.5 mph 25.3 mph 0.01 in Rain Light Rain
12:32 PM 35.6 °F 27.5 °F 30.2 °F 81% 29.67 in 10.0 mi WNW 11.5 mph 25.3 mph 0.01 in Rain Rain
12:51 PM 35.6 °F 26.6 °F 30.2 °F 81% 29.66 in 7.0 mi NW 13.8 mph 24.2 mph 0.02 in   Overcast
1:11 PM 35.6 °F 27.1 °F 30.2 °F 81% 29.67 in 10.0 mi NW 12.7 mph 23.0 mph N/A Rain Light Rain
1:31 PM 35.6 °F 26.6 °F 30.2 °F 81% 29.67 in 10.0 mi NW 13.8 mph 21.9 mph N/A   Drizzle
1:51 PM 35.6 °F 27.5 °F 30.2 °F 81% 29.67 in 10.0 mi NW 11.5 mph 26.5 mph N/A Rain Light Rain
2:11 PM 35.6 °F 26.6 °F 30.2 °F 81% 29.67 in 10.0 mi NW 13.8 mph 26.5 mph 0.01 in Rain Light Rain
2:31 PM 33.8 °F 25.3 °F 30.2 °F 87% 29.68 in 7.0 mi WNW 11.5 mph 23.0 mph 0.01 in Snow Light Snow
3:11 PM 33.8 °F 25.3 °F 30.2 °F 87% 29.69 in 10.0 mi WNW 11.5 mph 20.7 mph N/A   Overcast
3:31 PM 33.8 °F 26.4 °F 28.4 °F 81% 29.70 in 10.0 mi WNW 9.2 mph 21.9 mph N/A Snow Light Snow
3:51 PM 33.8 °F 25.8 °F 28.4 °F 81% 29.72 in 10.0 mi WNW 10.4 mph 23.0 mph N/A   Mostly Cloudy
4:11 PM 33.8 °F 26.4 °F 28.4 °F 81% 29.72 in 10.0 mi WNW 9.2 mph 25.3 mph N/A   Mostly Cloudy
4:31 PM 33.8 °F 27.0 °F 28.4 °F 81% 29.74 in 10.0 mi WNW 8.1 mph 20.7 mph N/A   Overcast
4:52 PM 33.8 °F 27.0 °F 28.4 °F 81% 29.75 in 10.0 mi West 8.1 mph 24.2 mph N/A   Overcast
5:31 PM 33.8 °F 27.7 °F 28.4 °F 81% 29.78 in 10.0 mi West 6.9 mph 17.3 mph N/A   Overcast
5:52 PM 33.8 °F 25.8 °F 28.4 °F 81% 29.78 in 10.0 mi West 10.4 mph 19.6 mph N/A   Overcast
6:11 PM 33.8 °F 28.6 °F 28.4 °F 81% 29.80 in 10.0 mi WNW 5.8 mph 16.1 mph N/A   Overcast
6:31 PM 33.8 °F 25.8 °F 28.4 °F 81% 29.80 in 10.0 mi WNW 10.4 mph 20.7 mph N/A   Overcast
6:51 PM 33.8 °F 25.8 °F 28.4 °F 81% 29.81 in 10.0 mi WNW 10.4 mph 18.4 mph N/A   Overcast
7:11 PM 33.8 °F 27.7 °F 28.4 °F 81% 29.82 in 10.0 mi West 6.9 mph 17.3 mph N/A   Mostly Cloudy
7:31 PM 33.8 °F 25.8 °F 28.4 °F 81% 29.84 in 10.0 mi West 10.4 mph 20.7 mph N/A   Scattered Clouds
7:51 PM 33.8 °F 27.0 °F 28.4 °F 81% 29.85 in 10.0 mi West 8.1 mph 16.1 mph N/A   Clear
8:31 PM 33.8 °F 24.3 °F 28.4 °F 81% 29.87 in 10.0 mi West 13.8 mph 17.3 mph N/A   Mostly Cloudy
8:52 PM 33.8 °F 27.0 °F 28.4 °F 81% 29.87 in 10.0 mi West 8.1 mph 19.6 mph N/A   Overcast
9:11 PM 33.8 °F 25.8 °F 26.6 °F 75% 29.88 in 10.0 mi West 10.4 mph 16.1 mph N/A   Scattered Clouds
9:31 PM 33.8 °F 27.0 °F 26.6 °F 75% 29.88 in 10.0 mi West 8.1 mph - N/A   Clear
9:51 PM 33.8 °F 26.4 °F 26.6 °F 75% 29.89 in 10.0 mi WSW 9.2 mph 17.3 mph N/A   Clear
10:51 PM 33.8 °F 25.3 °F 26.6 °F 75% 29.90 in 10.0 mi WSW 11.5 mph 18.4 mph N/A   Clear
11:11 PM 33.8 °F 27.0 °F 26.6 °F 75% 29.91 in 10.0 mi West 8.1 mph - N/A   Clear
11:31 PM 33.8 °F 25.8 °F 26.6 °F 75% 29.91 in 10.0 mi West 10.4 mph - N/A   Clear
11:51 PM 33.8 °F 25.3 °F 26.6 °F 75% 29.91 in 10.0 mi West 11.5 mph 21.9 mph N/A   Clear